Weather History for KLNK - October, 2010

Change the Weather History Date:

Sunday, October 10, 2010

  Actual Average Record
Temperature  
Mean Temperature 60 °F 56 °F  
Max Temperature 77 °F 68 °F 91 °F (1963)
Min Temperature 43 °F 43 °F 23 °F (2012)
Degree Days  
Heating Degree Days 5 10  
Month to date heating degree days 65 87  
Since 1 July heating degree days 121 185  
Cooling Degree Days 0 1  
Month to date cooling degree days 6 10  
Year to date cooling degree days 1302 1168  
Growing Degree Days 10 (Base 50)    
Moisture  
Dew Point 47 °F    
Average Humidity 65    
Maximum Humidity 93    
Minimum Humidity 36    
Precipitation  
Precipitation 0.01 in 0.07 in 2.26 in (1973)
Month to date precipitation 0.01 0.73  
Year to date precipitation 32.09 25.33  
Snow  
Snow 0.00 in 0.00 in - ()
Month to date snowfall 0.0 0.0  
Since 1 July snowfall 0.0 T  
Snow Depth 0.00 in    
Sea Level Pressure  
Sea Level Pressure 29.92 in    
Wind  
Wind Speed 5 mph (SSW)    
Max Wind Speed 15 mph    
Max Gust Speed 18 mph    
Visibility 10 miles    
Events      
T = Trace of Precipitation, MM = Missing Value Source: NWS Daily Summary

Daily Weather History Graph

Daily Weather History Graph

Search for Another Location

Airport or City:

Trip Planner

Search our weather history database for the weather conditions in past years. The results will help you decide how hot, cold, wet, or windy it might be!

Date:

Astronomy

Oct. 10, 2010 Rise Set
Actual Time 7:32 AM CDT 6:54 PM CDT
Civil Twilight 7:05 AM CDT 7:21 PM CDT
Nautical Twilight 6:33 AM CDT 7:53 PM CDT
Astronomical Twilight 6:01 AM CDT 8:25 PM CDT
Moon 11:07 AM CDT (10/10) 8:36 PM CDT (10/10)
Length of Visible Light 12h 16m
Length of Day
11h 21m
Waxing Crescent, 12% of the Moon is Illuminated
Oct 10
Waxing Crescent
Oct 14
First Quarter
Oct 22
Full
Oct 30
Last Quarter
Nov 5
New

Hourly Weather History & Observations

Time (CDT) Temp. Dew Point Humidity Pressure Visibility Wind Dir Wind Speed Gust Speed Precip Events Conditions
12:54 AM 54.0 °F 46.0 °F 75% 29.95 in 10.0 mi Calm Calm - N/A   Clear
1:54 AM 53.1 °F 46.0 °F 77% 29.94 in 10.0 mi Calm Calm - N/A   Clear
2:54 AM 51.1 °F 46.0 °F 83% 29.95 in 10.0 mi Calm Calm - N/A   Clear
3:54 AM 51.1 °F 46.0 °F 83% 29.94 in 10.0 mi Calm Calm - N/A   Clear
4:54 AM 50.0 °F 45.0 °F 83% 29.94 in 10.0 mi Calm Calm - N/A   Clear
5:54 AM 48.9 °F 45.0 °F 86% 29.96 in 10.0 mi Calm Calm - N/A   Clear
6:54 AM 45.0 °F 43.0 °F 93% 29.97 in 10.0 mi Calm Calm - N/A   Clear
7:54 AM 46.9 °F 44.1 °F 90% 29.98 in 10.0 mi Calm Calm - N/A   Clear
8:54 AM 52.0 °F 46.0 °F 80% 29.99 in 10.0 mi WSW 3.5 mph - N/A   Clear
9:54 AM 57.9 °F 48.9 °F 72% 29.98 in 10.0 mi South 3.5 mph - N/A   Clear
10:54 AM 66.0 °F 48.9 °F 54% 29.95 in 10.0 mi Calm Calm - N/A   Clear
11:54 AM 69.1 °F 48.9 °F 49% 29.94 in 10.0 mi South 4.6 mph - N/A   Clear
12:54 PM 73.0 °F 48.9 °F 42% 29.92 in 10.0 mi SSE 10.4 mph - N/A   Clear
1:54 PM 75.9 °F 48.0 °F 37% 29.90 in 10.0 mi South 9.2 mph - N/A   Clear
2:54 PM 73.9 °F 46.0 °F 37% 29.88 in 10.0 mi SSW 12.7 mph - N/A   Scattered Clouds
3:54 PM 75.9 °F 46.9 °F 36% 29.86 in 10.0 mi South 11.5 mph - N/A   Clear
4:54 PM 73.0 °F 48.9 °F 42% 29.86 in 10.0 mi South 8.1 mph - N/A   Clear
5:54 PM 71.1 °F 50.0 °F 47% 29.86 in 10.0 mi SSE 6.9 mph - N/A   Clear
6:54 PM 66.9 °F 51.1 °F 57% 29.87 in 10.0 mi South 8.1 mph - N/A   Clear
7:54 PM 68.0 °F 48.0 °F 49% 29.89 in 10.0 mi SSW 8.1 mph - N/A   Overcast
8:54 PM 66.9 °F 48.0 °F 51% 29.88 in 10.0 mi West 5.8 mph - N/A   Mostly Cloudy
9:54 PM 66.9 °F 46.9 °F 49% 29.88 in 10.0 mi Calm Calm - N/A   Mostly Cloudy
10:54 PM 66.0 °F 48.0 °F 52% 29.88 in 10.0 mi WSW 10.4 mph - 0.00 in   Scattered Clouds
11:54 PM 61.0 °F 51.1 °F 70% 29.89 in 10.0 mi South 6.9 mph 18.4 mph N/A   Overcast